AI5BL Weather Reports


time (UTC)temp
C
wind
direction
speed
KPH
gust
KPH
rain 1hr
cm
rain 24hr
cm
rain mn
cm
humidity
%
barometer
mb
20260906115514 23 82 0.0 0.0 0.00 0.00 0.00 99 1015.5
20260906115014 23 82 0.0 0.0 0.00 0.00 0.00 99 1015.6
20260906114508 23 82 0.0 0.0 0.00 0.00 0.00 99 1015.4
20260906114004 23 82 0.0 0.0 0.00 0.00 0.00 99 1015.4
20260906113503 23 82 0.0 0.0 0.00 0.00 0.00 99 1015.3
20260906112958 23 78 0.0 0.0 0.00 0.00 0.00 99 1015.3
20260906112453 23 78 0.0 0.0 0.00 0.00 0.00 99 1015.2
20260906111949 23 78 0.0 0.0 0.00 0.00 0.00 99 1015.3
20260906111448 23 77 0.0 0.0 0.00 0.00 0.00 99 1015.2
20260906110943 23 77 0.0 0.0 0.00 0.00 0.00 99 1015.2
20260906110439 23 77 0.0 0.0 0.00 0.00 0.00 99 1015.1
20260906105937 23 77 0.0 0.0 0.00 0.00 0.00 99 1015.1
20260906105433 23 77 0.0 0.0 0.00 0.00 0.00 99 1015.0
20260906104930 23 76 0.0 0.0 0.00 0.00 0.00 99 1015.0
20260906104428 23 76 0.0 0.0 0.00 0.00 0.00 99 1014.8
20260906103927 23 80 0.0 0.0 0.00 0.00 0.00 99 1015.0
20260906103426 23 80 0.0 0.0 0.00 0.00 0.00 99 1014.8
20260906102921 23 81 0.0 0.0 0.00 0.00 0.00 99 1014.8
20260906102421 23 81 0.0 0.0 0.00 0.00 0.00 99 1014.8
20260906101915 23 74 0.0 0.0 0.00 0.00 0.00 99 1014.8
20260906101411 23 72 0.0 0.0 0.00 0.00 0.00 99 1014.8
20260906100906 23 81 0.0 0.0 0.00 0.00 0.00 99 1014.8
20260906100406 23 81 0.0 0.0 0.00 0.00 0.00 99 1014.8
20260906095901 23 81 0.0 0.0 0.00 0.00 0.00 99 1014.7
20260906095356 23 81 0.0 0.0 0.00 0.00 0.00 99 1014.7
20260906094855 23 84 0.0 0.0 0.00 0.00 0.00 99 1014.8
20260906094351 23 84 0.0 0.0 0.00 0.00 0.00 99 1014.6
20260906093847 23 85 0.0 0.0 0.00 0.00 0.00 99 1014.5
20260906093343 23 85 0.0 0.0 0.00 0.00 0.00 99 1014.4
20260906092843 23 85 0.0 0.0 0.00 0.00 0.00 99 1014.3
20260906092337 23 86 0.0 0.0 0.00 0.00 0.00 99 1014.5
20260906091833 23 81 0.0 0.0 0.00 0.00 0.00 99 1014.5
20260906091329 23 81 0.0 0.0 0.00 0.00 0.00 99 1014.5
20260906090826 23 81 0.0 0.0 0.00 0.00 0.00 99 1014.4
20260906090324 23 81 0.0 0.0 0.00 0.00 0.00 99 1014.4
20260906085818 23 81 0.0 0.0 0.00 0.00 0.00 99 1014.4
20260906085317 23 81 0.0 0.0 0.00 0.00 0.00 99 1014.3
20260906084812 23 81 0.0 0.0 0.00 0.00 0.00 99 1014.4
20260906084312 23 81 0.0 0.0 0.00 0.00 0.00 99 1014.2
20260906083807 23 81 0.0 0.0 0.00 0.00 0.00 99 1014.4
20260906083302 23 81 0.0 0.0 0.00 0.00 0.00 99 1014.3
20260906082757 23 81 0.0 0.0 0.00 0.00 0.00 99 1014.3
20260906082252 23 81 0.0 0.0 0.00 0.00 0.00 99 1014.2
20260906081748 23 81 0.0 0.0 0.00 0.00 0.00 99 1014.2
20260906081243 23 81 0.0 0.0 0.00 0.00 0.00 99 1014.3
20260906080739 23 81 0.0 0.0 0.00 0.00 0.00 98 1014.2
20260906080236 23 78 0.0 0.0 0.00 0.00 0.00 98 1014.1
20260906075730 23 78 0.0 0.0 0.00 0.00 0.00 98 1014.0
20260906075229 23 79 0.0 0.0 0.00 0.00 0.00 98 1014.0
20260906074725 23 81 0.0 0.0 0.00 0.00 0.00 98 1014.0
20260906074224 23 86 0.0 0.0 0.00 0.00 0.00 98 1013.7
20260906073719 23 87 0.0 0.0 0.00 0.00 0.00 98 1013.8
20260906073214 24 87 0.0 0.0 0.00 0.00 0.00 98 1014.0
20260906072709 24 87 0.0 0.0 0.00 0.00 0.00 98 1014.0
20260906072205 24 87 0.0 0.0 0.00 0.00 0.00 98 1014.0
20260906071701 23 85 0.0 0.0 0.00 0.00 0.00 98 1014.0
20260906071200 23 85 0.0 0.0 0.00 0.00 0.00 98 1014.0
20260906070657 24 86 0.0 0.0 0.00 0.00 0.00 98 1014.0
20260906070153 24 87 0.0 0.0 0.00 0.00 0.00 98 1014.1
20260906065652 24 87 0.0 0.0 0.00 0.00 0.00 98 1014.0
20260906065148 24 88 0.0 0.0 0.00 0.00 0.00 98 1014.0
20260906064643 24 90 0.0 0.0 0.00 0.00 0.00 98 1013.8
20260906064139 24 85 0.0 0.0 0.00 0.00 0.00 98 1014.1
20260906063639 24 85 0.0 0.0 0.00 0.00 0.00 98 1014.1
20260906063135 24 102 0.0 0.0 0.00 0.00 0.00 98 1014.1
20260906062630 24 97 0.0 0.0 0.00 0.00 0.00 98 1013.8
20260906062129 24 101 0.0 0.0 0.00 0.00 0.00 98 1014.1
20260906061625 24 103 0.0 0.0 0.00 0.00 0.00 98 1014.0
20260906061125 24 100 0.0 0.0 0.00 0.00 0.00 98 1014.0
20260906060622 24 90 0.0 0.0 0.00 0.00 0.00 97 1014.0
20260906060119 24 92 0.0 0.0 0.00 0.00 0.00 97 1014.0
20260906055614 24 92 0.0 0.0 0.00 0.00 0.00 97 1014.1
20260906055110 24 98 0.0 0.0 0.00 0.00 0.00 97 1014.2
20260906054610 24 99 0.0 0.0 0.00 0.00 0.00 97 1014.4
20260906054105 24 99 0.0 0.0 0.00 0.00 0.00 97 1014.0
20260906053602 25 99 0.0 0.0 0.00 0.00 0.00 97 1014.1
20260906053057 24 94 0.0 0.0 0.00 0.00 0.00 97 1014.4
20260906052552 25 94 0.0 0.0 0.00 0.00 0.00 97 1014.4
20260906052049 25 94 0.0 0.0 0.00 0.00 0.00 97 1014.4
20260906051545 25 102 0.0 0.0 0.00 0.00 0.00 97 1014.4
20260906051040 25 104 0.0 0.0 0.00 0.00 0.00 97 1014.4
20260906050535 25 94 0.0 0.0 0.00 0.00 0.00 97 1014.4
20260906050030 25 94 0.0 0.0 0.00 0.00 0.00 97 1014.5
20260906045528 25 94 0.0 0.0 0.00 0.00 0.00 96 1014.6
20260906045024 25 93 0.0 0.0 0.00 0.00 0.00 96 1014.6
20260906044519 25 95 0.0 0.0 0.00 0.00 0.00 96 1014.6
20260906044015 25 95 0.0 0.0 0.00 0.00 0.00 96 1014.4
20260906043510 25 97 0.0 0.0 0.00 0.00 0.00 96 1014.6
20260906043007 25 97 0.0 0.0 0.00 0.00 0.00 96 1014.7
20260906042505 25 93 0.0 0.0 0.00 0.00 0.00 96 1014.7
20260906042005 25 86 0.0 0.0 0.00 0.00 0.00 96 1014.6
20260906041502 25 84 0.0 0.0 0.00 0.00 0.00 96 1014.5
20260906041001 25 84 0.0 0.0 0.00 0.00 0.00 96 1014.6
20260906040456 25 84 0.0 0.0 0.00 0.00 0.00 95 1014.9
20260906035952 25 84 0.0 0.0 0.00 0.00 0.00 95 1014.8
20260906035447 25 84 0.0 0.0 0.00 0.00 0.00 95 1014.9
20260906034943 25 84 0.0 0.0 0.00 0.00 0.00 95 1015.0
20260906034442 25 84 0.0 0.0 0.00 0.00 0.00 95 1014.9
20260906033938 25 84 0.0 0.0 0.00 0.00 0.00 95 1014.9
20260906033438 25 85 0.0 0.0 0.00 0.00 0.00 95 1015.0
20260906032934 25 63 0.0 0.0 0.00 0.00 0.00 95 1015.1
20260906032431 25 86 0.0 0.0 0.00 0.00 0.00 95 1015.0
20260906031930 25 82 0.0 0.0 0.00 0.00 0.00 95 1015.1
20260906031426 25 79 0.0 0.0 0.00 0.00 0.00 95 1015.0
20260906030921 25 79 0.0 0.0 0.00 0.00 0.00 94 1015.1
20260906030416 25 74 0.0 0.0 0.00 0.00 0.00 94 1014.9
20260906025910 25 87 0.0 0.0 0.00 0.00 0.00 95 1014.8
20260906025404 25 87 0.0 0.0 0.00 0.00 0.00 94 1014.6
20260906024903 25 87 0.0 0.0 0.00 0.00 0.00 94 1014.7
20260906024402 25 87 0.0 0.0 0.00 0.00 0.00 93 1014.7
20260906023858 25 86 0.0 0.0 0.00 0.00 0.00 93 1014.7
20260906023355 25 86 0.0 0.0 0.00 0.00 0.00 93 1014.7
20260906022854 25 86 0.0 0.0 0.00 0.00 0.00 93 1014.6
20260906022349 25 86 0.0 0.0 0.00 0.00 0.00 93 1014.5
20260906021845 25 86 0.0 0.0 0.00 0.00 0.00 93 1014.4
20260906021344 25 86 0.0 0.0 0.00 0.00 0.00 93 1014.3
20260906020839 25 86 0.0 0.0 0.00 0.00 0.00 93 1014.2
20260906020338 25 86 0.0 0.0 0.00 0.00 0.00 93 1014.2
20260906015833 25 86 0.0 0.0 0.00 0.00 0.00 93 1014.2
20260906015333 26 90 0.0 0.0 0.00 0.00 0.00 93 1014.2
20260906014832 26 90 0.0 0.0 0.00 0.00 0.00 92 1014.2
20260906014327 26 88 0.0 0.0 0.00 0.00 0.00 92 1014.3
20260906013824 26 88 0.0 0.0 0.00 0.00 0.00 92 1014.4
20260906013319 26 88 0.0 0.0 0.00 0.00 0.00 92 1014.2
20260906012815 26 89 0.0 0.0 0.00 0.00 0.00 92 1014.3
20260906012314 26 98 0.0 0.0 0.00 0.00 0.00 92 1014.2
20260906011809 26 92 0.0 0.0 0.00 0.00 0.00 91 1014.4
20260906011309 26 109 0.0 0.0 0.00 0.00 0.00 90 1014.1
20260906010806 26 111 0.0 1.6 0.00 0.00 0.00 90 1014.1
20260906010301 26 105 0.0 0.0 0.00 0.00 0.00 92 1014.0
20260906005756 26 86 0.0 0.0 0.00 0.00 0.00 89 1014.0
20260906005255 26 86 0.0 0.0 0.00 0.00 0.00 89 1013.7
20260906004754 26 86 0.0 0.0 0.00 0.00 0.00 89 1013.5
20260906004250 27 95 0.0 0.0 0.00 0.00 0.00 89 1013.5
20260906003749 27 95 0.0 0.0 0.00 0.00 0.00 89 1013.5
20260906003245 27 95 0.0 0.0 0.00 0.00 0.00 89 1013.6
20260906002741 27 96 0.0 0.0 0.00 0.00 0.00 85 1013.7
20260906002240 27 98 0.0 0.0 0.00 0.00 0.00 84 1013.6
20260906001736 28 98 0.0 0.0 0.00 0.00 0.00 83 1013.7
20260906001231 28 98 0.0 0.0 0.00 0.00 0.00 83 1013.8
20260906000726 28 98 0.0 0.0 0.00 0.00 0.00 83 1014.0
20260906000226 28 98 0.0 0.0 0.00 0.00 0.00 83 1014.0
20260905235721 28 98 0.0 0.0 0.00 0.00 0.00 85 1014.0
20260905235215 28 98 0.0 0.0 0.00 0.00 0.00 81 1013.8
20260905234711 28 98 0.0 0.0 0.00 0.00 0.00 82 1014.2
20260905234206 29 98 0.0 0.0 0.00 0.00 0.00 82 1013.7
20260905233701 29 98 0.0 0.0 0.00 0.00 0.00 80 1013.8
20260905233201 29 100 0.0 0.0 0.00 0.00 0.00 79 1013.8
20260905232656 29 99 0.0 0.0 0.00 0.00 0.00 80 1013.7
20260905232152 30 102 0.0 0.0 0.00 0.00 0.00 77 1013.6
20260905231647 30 102 1.6 1.6 0.00 0.00 0.00 76 1013.8
20260905231143 30 102 0.0 0.0 0.00 0.00 0.00 76 1013.6
20260905230639 30 94 0.0 0.0 0.00 0.00 0.00 73 1013.8
20260905230137 30 95 0.0 1.6 0.00 0.00 0.00 71 1013.7
20260905225636 31 96 0.0 1.6 0.00 0.00 0.00 76 1013.7
20260905225137 30 64 0.0 1.6 0.00 0.00 0.00 69 1013.5
20260905224636 31 166 0.0 3.2 0.00 0.00 0.00 67 1013.7
20260905224136 31 88 0.0 4.8 0.00 0.00 0.00 69 1013.6
20260905223633 31 108 0.0 0.0 0.00 0.00 0.00 68 1013.5
20260905223129 31 69 0.0 0.0 0.00 0.00 0.00 67 1013.6
20260905222625 31 85 0.0 1.6 0.00 0.00 0.00 67 1013.6
20260905222119 31 172 3.2 4.8 0.00 0.00 0.00 70 1013.6
20260905221615 31 153 3.2 4.8 0.00 0.00 0.00 68 1013.7
20260905221111 31 11 3.2 9.7 0.00 0.00 0.00 65 1013.7
20260905220607 32 74 0.0 0.0 0.00 0.00 0.00 65 1014.0
20260905220103 32 96 0.0 3.2 0.00 0.00 0.00 64 1014.0
20260905215602 32 100 1.6 9.7 0.00 0.00 0.00 64 1013.8
20260905215058 31 105 0.0 4.8 0.00 0.00 0.00 64 1014.3
20260905214555 31 141 6.4 6.4 0.00 0.00 0.00 67 1014.1
20260905214054 32 88 0.0 1.6 0.00 0.00 0.00 63 1014.3
20260905213550 32 120 3.2 4.8 0.00 0.00 0.00 62 1014.3
20260905213045 32 78 1.6 6.4 0.00 0.00 0.00 61 1014.4
20260905212545 32 82 0.0 4.8 0.00 0.00 0.00 62 1014.5
20260905212045 32 161 3.2 4.8 0.00 0.00 0.00 61 1014.4
20260905211540 32 76 0.0 4.8 0.00 0.00 0.00 62 1014.7
20260905211036 31 140 3.2 3.2 0.00 0.00 0.00 62 1014.5
20260905210532 31 95 0.0 4.8 0.00 0.00 0.00 63 1014.5
20260905210032 31 59 0.0 3.2 0.00 0.00 0.00 65 1014.6
20260905205531 31 140 4.8 6.4 0.00 0.00 0.00 65 1014.5
20260905205030 32 132 0.0 3.2 0.00 0.00 0.00 62 1014.6
20260905204525 32 255 4.8 4.8 0.00 0.00 0.00 61 1014.7
20260905204021 31 220 1.6 6.4 0.00 0.00 0.00 62 1014.9
20260905203520 31 5 1.6 3.2 0.00 0.00 0.00 65 1014.8
20260905203016 32 39 1.6 4.8 0.00 0.00 0.00 66 1014.6
20260905202511 32 172 1.6 6.4 0.00 0.00 0.00 66 1014.8
20260905202006 31 107 1.6 3.2 0.00 0.00 0.00 66 1014.9
20260905201501 32 328 3.2 4.8 0.00 0.00 0.00 64 1015.0
20260905201001 32 105 1.6 3.2 0.00 0.00 0.00 65 1015.1
20260905200457 31 259 3.2 6.4 0.00 0.00 0.00 67 1014.9
20260905195955 31 90 0.0 6.4 0.00 0.00 0.00 67 1014.9
20260905195450 32 94 1.6 3.2 0.00 0.00 0.00 64 1015.1
20260905194946 32 113 4.8 4.8 0.00 0.00 0.00 65 1015.1
20260905194445 32 51 3.2 4.8 0.00 0.00 0.00 66 1015.0
20260905193940 32 60 1.6 4.8 0.00 0.00 0.00 63 1015.1
20260905193440 32 105 1.6 4.8 0.00 0.00 0.00 62 1015.1
20260905192936 32 345 0.0 4.8 0.00 0.00 0.00 64 1015.3
20260905192431 32 86 1.6 6.4 0.00 0.00 0.00 65 1015.2
20260905191926 31 114 1.6 3.2 0.00 0.00 0.00 64 1015.2
20260905191425 31 237 3.2 4.8 0.00 0.00 0.00 64 1015.3
20260905190920 32 74 1.6 4.8 0.00 0.00 0.00 64 1015.5
20260905190418 32 96 1.6 1.6 0.00 0.00 0.00 69 1015.6
20260905185916 32 84 0.0 3.2 0.00 0.00 0.00 68 1015.6
20260905185412 32 13 1.6 3.2 0.00 0.00 0.00 66 1015.7
20260905184911 31 240 3.2 4.8 0.00 0.00 0.00 68 1015.8
20260905184411 32 5 3.2 4.8 0.00 0.00 0.00 69 1015.8
20260905183909 31 170 3.2 4.8 0.00 0.00 0.00 69 1016.1
20260905183404 31 101 3.2 9.7 0.00 0.00 0.00 69 1016.2
20260905182859 31 198 3.2 4.8 0.00 0.00 0.00 68 1016.2
20260905182358 31 83 1.6 4.8 0.00 0.00 0.00 68 1016.3
20260905181855 31 350 3.2 4.8 0.00 0.00 0.00 70 1016.1
20260905181354 31 161 3.2 3.2 0.00 0.00 0.00 69 1016.5
20260905180853 31 149 1.6 1.6 0.00 0.00 0.00 73 1016.3
20260905180349 31 12 0.0 3.2 0.00 0.00 0.00 70 1016.6
20260905175843 31 66 1.6 3.2 0.00 0.00 0.00 71 1016.6
20260905175337 31 145 1.6 3.2 0.00 0.00 0.00 69 1016.7
20260905174832 31 92 0.0 1.6 0.00 0.00 0.00 69 1016.7
20260905174329 31 213 3.2 6.4 0.00 0.00 0.00 70 1016.6
20260905173824 31 27 1.6 6.4 0.00 0.00 0.00 70 1016.6
20260905173320 31 65 1.6 3.2 0.00 0.00 0.00 68 1016.7
20260905172820 31 158 3.2 3.2 0.00 0.00 0.00 71 1016.6
20260905172318 32 99 1.6 3.2 0.00 0.00 0.00 66 1016.7
20260905171814 31 129 3.2 9.7 0.00 0.00 0.00 68 1016.7
20260905171311 31 330 1.6 3.2 0.00 0.00 0.00 68 1016.7
20260905170807 31 104 0.0 3.2 0.00 0.00 0.00 71 1016.8
20260905170302 30 105 0.0 3.2 0.00 0.00 0.00 75 1017.1
20260905165801 30 84 0.0 1.6 0.00 0.00 0.00 71 1017.1
20260905165258 31 75 1.6 1.6 0.00 0.00 0.00 73 1016.9
20260905164752 30 85 0.0 1.6 0.00 0.00 0.00 73 1016.9
20260905164252 31 60 1.6 3.2 0.00 0.00 0.00 71 1017.0
20260905163748 31 95 0.0 1.6 0.00 0.00 0.00 71 1017.1
20260905163244 31 81 3.2 3.2 0.00 0.00 0.00 72 1017.2
20260905162740 32 83 0.0 4.8 0.00 0.00 0.00 73 1017.2
20260905162239 31 36 3.2 3.2 0.00 0.00 0.00 73 1017.2
20260905161734 30 98 0.0 3.2 0.00 0.00 0.00 76 1017.2
20260905161232 31 59 1.6 3.2 0.00 0.00 0.00 73 1017.5
20260905160732 31 87 0.0 1.6 0.00 0.00 0.00 74 1017.4
20260905160231 30 150 4.8 6.4 0.00 0.00 0.00 74 1017.3
20260905155727 31 93 1.6 4.8 0.00 0.00 0.00 77 1017.4
20260905155225 30 91 0.0 4.8 0.00 0.00 0.00 77 1017.5
20260905154719 30 45 1.6 4.8 0.00 0.00 0.00 77 1017.5
20260905154215 30 80 1.6 3.2 0.00 0.00 0.00 78 1017.5
20260905153710 30 102 1.6 3.2 0.00 0.00 0.00 77 1017.4
20260905153206 30 100 0.0 1.6 0.00 0.00 0.00 82 1017.3
20260905152701 30 118 0.0 1.6 0.00 0.00 0.00 84 1017.4
20260905152155 29 72 0.0 3.2 0.00 0.00 0.00 80 1017.4
20260905151650 29 122 3.2 3.2 0.00 0.00 0.00 81 1017.2
20260905151146 29 144 1.6 1.6 0.00 0.00 0.00 82 1017.3
20260905150641 28 90 0.0 1.6 0.00 0.00 0.00 83 1017.5
20260905150139 28 113 1.6 4.8 0.00 0.00 0.00 87 1017.4
20260905145638 27 83 0.0 0.0 0.00 0.00 0.00 88 1017.4
20260905145137 26 53 0.0 1.6 0.00 0.00 0.00 92 1017.6
20260905144632 26 71 0.0 1.6 0.00 0.00 0.00 96 1017.3
20260905144131 26 103 0.0 1.6 0.00 0.00 0.00 97 1017.6
20260905143626 25 98 0.0 0.0 0.00 0.00 0.00 97 1017.2
20260905143125 25 93 0.0 0.0 0.00 0.00 0.00 98 1017.2
20260905142624 25 95 0.0 0.0 0.00 0.00 0.00 99 1017.1
20260905142125 25 95 0.0 1.6 0.00 0.00 0.00 99 1017.1
20260905141624 25 95 0.0 1.6 0.00 0.00 0.00 99 1017.2
20260905141121 25 100 0.0 0.0 0.00 0.00 0.00 99 1017.2
20260905140616 25 106 0.0 0.0 0.00 0.00 0.00 99 1017.2
20260905140115 25 100 0.0 1.6 0.00 0.00 0.00 99 1017.2
20260905135610 25 94 0.0 1.6 0.00 0.00 0.00 99 1017.2
20260905135105 25 86 0.0 1.6 0.00 0.00 0.00 99 1017.2
20260905134600 24 100 0.0 1.6 0.00 0.00 0.00 99 1017.3
20260905134058 24 99 0.0 0.0 0.00 0.00 0.00 99 1017.2
20260905133555 24 94 0.0 0.0 0.00 0.00 0.00 99 1017.2
20260905133054 24 95 0.0 0.0 0.00 0.00 0.00 99 1017.2
20260905132554 23 95 0.0 0.0 0.00 0.00 0.00 99 1017.1
20260905132049 24 93 0.0 0.0 0.00 0.00 0.00 99 1017.1
20260905131544 23 86 0.0 0.0 0.00 0.00 0.00 99 1017.2
20260905131040 23 81 0.0 0.0 0.00 0.00 0.00 99 1017.2
20260905130538 23 61 0.0 0.0 0.00 0.00 0.00 99 1017.3
20260905130034 23 58 0.0 1.6 0.00 0.00 0.00 99 1017.1
20260905125533 23 71 0.0 1.6 0.00 0.00 0.00 99 1017.1
20260905125029 23 34 1.6 1.6 0.00 0.00 0.00 99 1016.9
20260905124525 23 67 0.0 0.0 0.00 0.00 0.00 99 1016.7
20260905124021 23 56 0.0 0.0 0.00 0.00 0.00 99 1016.7
20260905123517 23 78 0.0 0.0 0.00 0.00 0.00 99 1016.6
20260905123013 23 70 0.0 0.0 0.00 0.00 0.00 99 1016.7
20260905122507 23 70 0.0 0.0 0.00 0.00 0.00 99 1016.6
20260905122001 23 70 0.0 0.0 0.00 0.00 0.00 99 1016.6
20260905121457 23 69 0.0 0.0 0.00 0.00 0.00 99 1016.4
20260905120956 23 73 0.0 0.0 0.00 0.00 0.00 99 1016.5
20260905120450 23 68 0.0 0.0 0.00 0.00 0.00 99 1016.3
20260905115946 23 69 0.0 0.0 0.00 0.00 0.00 99 1016.4